Location: Biharia
(46.4333°N, 22.8000°E)
Time: 22:02:32
(UTC+00:00)

SL-19 R/B - Pass Details

Date: 16 October 2021
Orbit: 874 x 1209 km, 100.6° (Epoch: 29 November)

Event Time Altitude Azimuth Distance (km) Brightness Sun altitude
Rises 16:19:14 0° 17° (NNE) 3,651 7.3 -7.5°
Reaches altitude 10° 16:21:45 10° 19° (NNE) 2,660 6.6 -7.9°
Maximum altitude 16:27:38 80° 106° (ESE) 917 4.3 -8.9°
Drops below altitude 10° 16:33:12 10° 194° (SSW) 2,525 6.9 -9.9°
Sets 16:35:32 0° 196° (SSW) 3,452 7.6 -10.3°
